TimeEST,TemperatureF,Dew PointF,Humidity,Sea Level PressureIn,VisibilityMPH,Wind Direction,Wind SpeedMPH,Gust SpeedMPH,PrecipitationIn,Events,Conditions,WindDirDegrees,DateUTC
12:15 AM,27.0,25.0,92,30.32,10.0,Calm,Calm,-,N/A,,Clear,0,2013-01-05 05:15:00
12:35 AM,27.3,25.2,92,30.32,10.0,Calm,Calm,-,N/A,,Clear,0,2013-01-05 05:35:00
12:55 AM,26.4,24.3,92,30.31,10.0,Calm,Calm,-,N/A,,Clear,0,2013-01-05 05:55:00
1:15 AM,26.6,24.3,91,30.31,10.0,Calm,Calm,-,N/A,,Clear,0,2013-01-05 06:15:00
1:35 AM,26.6,24.4,92,30.33,10.0,Calm,Calm,-,N/A,,Clear,0,2013-01-05 06:35:00
1:55 AM,25.2,22.8,91,30.32,10.0,Calm,Calm,-,N/A,,Clear,0,2013-01-05 06:55:00
2:15 AM,26.2,24.1,92,30.33,10.0,Calm,Calm,-,N/A,,Clear,0,2013-01-05 07:15:00
2:35 AM,25.0,22.5,90,30.33,10.0,Calm,Calm,-,N/A,,Clear,0,2013-01-05 07:35:00
2:55 AM,26.1,23.4,90,30.34,10.0,Calm,Calm,-,N/A,,Clear,0,2013-01-05 07:55:00
3:15 AM,25.3,22.8,90,30.34,10.0,Calm,Calm,-,N/A,,Clear,0,2013-01-05 08:15:00
3:35 AM,25.5,23.0,90,30.34,10.0,Calm,Calm,-,N/A,,Clear,0,2013-01-05 08:35:00
3:55 AM,25.5,22.6,89,30.34,10.0,Calm,Calm,-,N/A,,Clear,0,2013-01-05 08:55:00
4:15 AM,25.5,23.2,91,30.33,10.0,Calm,Calm,-,N/A,,Clear,0,2013-01-05 09:15:00
4:35 AM,23.5,21.0,90,30.33,10.0,Calm,Calm,-,N/A,,Clear,0,2013-01-05 09:35:00
4:55 AM,24.4,21.9,90,30.34,10.0,Calm,Calm,-,N/A,,Clear,0,2013-01-05 09:55:00
5:15 AM,24.4,22.1,91,30.34,10.0,Calm,Calm,-,N/A,,Clear,0,2013-01-05 10:15:00
5:35 AM,24.8,22.5,91,30.34,10.0,Calm,Calm,-,N/A,,Clear,0,2013-01-05 10:35:00
5:55 AM,22.8,20.1,89,30.34,10.0,Calm,Calm,-,N/A,,Clear,0,2013-01-05 10:55:00
6:15 AM,23.5,21.0,90,30.34,10.0,Calm,Calm,-,N/A,,Clear,0,2013-01-05 11:15:00
6:35 AM,23.2,20.7,90,30.34,10.0,Calm,Calm,-,N/A,,Clear,0,2013-01-05 11:35:00
7:15 AM,23.0,21.0,92,30.36,10.0,Calm,Calm,-,N/A,,Clear,0,2013-01-05 12:15:00
7:35 AM,23.0,21.0,92,30.37,10.0,Calm,Calm,-,N/A,,Clear,0,2013-01-05 12:35:00
7:55 AM,23.0,21.0,92,30.37,10.0,Calm,Calm,-,N/A,,Clear,0,2013-01-05 12:55:00
8:35 AM,26.2,23.7,90,30.39,10.0,Calm,Calm,-,N/A,,Clear,0,2013-01-05 13:35:00
8:55 AM,28.0,24.8,88,30.40,10.0,Calm,Calm,-,N/A,,Clear,0,2013-01-05 13:55:00
9:15 AM,30.7,26.2,83,30.41,10.0,Calm,Calm,-,N/A,,Clear,0,2013-01-05 14:15:00
9:35 AM,33.4,28.4,82,30.42,10.0,Calm,Calm,-,N/A,,Clear,0,2013-01-05 14:35:00
9:55 AM,37.0,27.1,67,30.42,10.0,Calm,Calm,-,N/A,,Clear,0,2013-01-05 14:55:00
10:15 AM,39.2,26.4,60,30.42,10.0,Calm,Calm,-,N/A,,Clear,0,2013-01-05 15:15:00
10:55 AM,42.8,22.6,45,30.41,10.0,NE,3.5,-,N/A,,Clear,40,2013-01-05 15:55:00
11:15 AM,43.9,22.6,43,30.40,10.0,NNE,4.6,-,N/A,,Clear,20,2013-01-05 16:15:00
11:55 AM,46.4,22.6,39,30.37,10.0,NNE,3.5,-,N/A,,Clear,20,2013-01-05 16:55:00
12:15 PM,47.5,22.6,38,30.36,10.0,NE,4.6,-,N/A,,Clear,40,2013-01-05 17:15:00
12:35 PM,48.7,22.6,36,30.34,10.0,NNE,3.5,-,N/A,,Clear,20,2013-01-05 17:35:00
12:55 PM,49.1,20.8,33,30.33,10.0,Calm,Calm,-,N/A,,Clear,0,2013-01-05 17:55:00
1:15 PM,50.0,19.6,30,30.32,10.0,Calm,Calm,-,N/A,,Clear,0,2013-01-05 18:15:00
1:35 PM,50.2,21.0,32,30.31,10.0,Calm,Calm,-,N/A,,Clear,0,2013-01-05 18:35:00
1:55 PM,51.1,18.9,28,30.30,10.0,Calm,Calm,-,N/A,,Clear,0,2013-01-05 18:55:00
2:15 PM,50.7,17.8,27,30.29,10.0,Calm,Calm,-,N/A,,Clear,0,2013-01-05 19:15:00
2:35 PM,51.3,18.1,27,30.30,10.0,Calm,Calm,-,N/A,,Clear,0,2013-01-05 19:35:00
2:55 PM,51.6,17.2,26,30.30,10.0,Calm,Calm,-,N/A,,Clear,0,2013-01-05 19:55:00
3:15 PM,52.0,16.9,25,30.29,10.0,Calm,Calm,-,N/A,,Clear,0,2013-01-05 20:15:00
3:35 PM,52.7,17.6,25,30.30,10.0,Calm,Calm,-,N/A,,Clear,0,2013-01-05 20:35:00
3:55 PM,52.3,20.1,28,30.31,10.0,Calm,Calm,-,N/A,,Clear,0,2013-01-05 20:55:00
4:15 PM,51.1,19.2,29,30.31,10.0,Calm,Calm,-,N/A,,Clear,0,2013-01-05 21:15:00
4:35 PM,51.1,19.8,29,30.31,10.0,Calm,Calm,-,N/A,,Clear,0,2013-01-05 21:35:00
4:55 PM,49.1,27.0,42,30.30,10.0,Calm,Calm,-,N/A,,Clear,0,2013-01-05 21:55:00
5:15 PM,45.5,31.1,57,30.29,10.0,Calm,Calm,-,N/A,,Clear,0,2013-01-05 22:15:00
5:55 PM,41.4,32.0,69,30.29,10.0,Calm,Calm,-,N/A,,Clear,0,2013-01-05 22:55:00
6:15 PM,42.1,30.4,63,30.29,10.0,Calm,Calm,-,N/A,,Clear,0,2013-01-05 23:15:00
6:35 PM,40.3,31.3,70,30.29,10.0,Calm,Calm,-,N/A,,Clear,0,2013-01-05 23:35:00
6:55 PM,39.4,31.6,74,30.31,10.0,Calm,Calm,-,N/A,,Clear,0,2013-01-05 23:55:00
7:15 PM,37.4,31.8,80,30.30,10.0,Calm,Calm,-,N/A,,Clear,0,2013-01-06 00:15:00
7:35 PM,36.9,31.8,82,30.30,10.0,Calm,Calm,-,N/A,,Clear,0,2013-01-06 00:35:00
7:55 PM,37.8,32.0,80,30.30,10.0,Calm,Calm,-,N/A,,Clear,0,2013-01-06 00:55:00
8:15 PM,38.5,30.9,74,30.29,10.0,SE,3.5,-,N/A,,Clear,140,2013-01-06 01:15:00
8:35 PM,43.0,28.2,56,30.30,10.0,South,3.5,-,N/A,,Clear,180,2013-01-06 01:35:00
8:55 PM,43.0,28.9,58,30.31,10.0,SSW,3.5,-,N/A,,Clear,210,2013-01-06 01:55:00
9:15 PM,42.8,29.3,59,30.31,10.0,SSW,3.5,-,N/A,,Mostly Cloudy,210,2013-01-06 02:15:00
9:35 PM,43.2,29.5,59,30.31,10.0,Calm,Calm,-,N/A,,Overcast,0,2013-01-06 02:35:00
9:55 PM,43.0,29.8,60,30.31,10.0,SW,3.5,-,N/A,,Mostly Cloudy,220,2013-01-06 02:55:00
10:15 PM,43.0,30.2,61,30.30,10.0,SSW,3.5,-,N/A,Rain,Light Rain,210,2013-01-06 03:15:00
10:35 PM,43.3,30.2,60,30.30,10.0,Calm,Calm,-,N/A,,Overcast,0,2013-01-06 03:35:00
10:55 PM,43.3,30.6,61,30.29,10.0,Calm,Calm,-,N/A,,Light Drizzle,0,2013-01-06 03:55:00
11:15 PM,43.9,30.6,59,30.29,10.0,Calm,Calm,-,N/A,,Light Drizzle,0,2013-01-06 04:15:00
11:35 PM,43.5,32.9,66,30.26,10.0,Calm,Calm,-,N/A,,Overcast,0,2013-01-06 04:35:00
11:55 PM,43.0,32.9,68,30.25,10.0,Calm,Calm,-,N/A,,Overcast,0,2013-01-06 04:55:00